Location: Beccas
(43.4309°N, 0.1528°E)
Time: 09:57:54
(UTC+00:00)

Cosmos 1908 - Pass Details

Date: 15 October 2021
Orbit: 509 x 528 km, 82.5° (Epoch: 07 December)

Event Time Altitude Azimuth Distance (km) Brightness Sun altitude
Rises 17:53:17 0° 162° (SSE) 2,653 6.7 -7.5°
Reaches altitude 10° 17:55:36 10° 151° (SSE) 1,768 5.7 -7.9°
Maximum altitude 17:58:58 29° 91° (E) 998 4.1 -8.5°
Drops below altitude 10° 18:02:21 10° 31° (NNE) 1,776 5.6 -9.2°
Sets 18:04:41 0° 20° (NNE) 2,667 6.6 -9.6°
